Location: *
(2.5500°S, 65.9667°W)
Time: 03:04:59
(UTC+00:00)

Okean O Rocket - Pass Details

Date: 30 May 2022
Orbit: 623 x 643 km, 98.2° (Epoch: 04 July)

Event Time Altitude Azimuth Distance (km) Brightness Sun altitude
Exits shadow 22:47:51 - 124° (SE) 2,173 3.7 -7.1°
Reaches altitude 10° 22:48:29 10° 118° (ESE) 1,997 3.5 -7.2°
Maximum altitude 22:51:14 17° 79° (ENE) 1,602 3.2 -7.8°
Drops below altitude 10° 22:53:58 10° 39° (NE) 1,985 4.0 -8.5°
Sets 22:56:50 0° 18° (NNE) 2,886 5.0 -9.1°
